Theta_e
355 362 367 369 368 366 364 364 363 362 361 361 361 360 362 362 363 363 363 364 364 364 363 362 361 358 358 356 355 357 357 356 355 355 354 354 353 353 351 351 352 350 351
358 362 367 367 367 365 364 364 362 361 361 361 361 361 362 363 363 363 363 364 364 365 363 360 359 357 356 355 355 355 355 355 355 354 354 353 355 355 354 352 353 351 352
357 361 363 367 366 365 364 363 361 361 361 361 360 361 362 363 363 362 363 364 364 364 361 360 357 356 355 354 354 354 354 354 354 356 357 354 353 357 356 355 354 358 359
358 359 361 366 365 365 363 362 361 361 361 361 361 362 362 363 363 362 363 363 364 362 361 359 356 355 354 354 354 353 352 351 354 356 352 354 354 360 355 353 354 358 359
359 357 364 365 365 365 364 362 361 360 360 361 361 362 363 363 363 362 362 361 361 360 359 357 356 355 355 353 352 351 350 353 357 356 353 355 351 356 355 356 353 355 361
357 357 364 364 364 364 363 362 361 361 361 361 361 362 362 363 363 363 362 361 359 358 355 355 355 355 354 353 351 351 353 355 357 351 352 352 344 353 353 354 354 355 356
356 361 363 364 363 363 363 362 361 361 361 360 361 362 362 362 362 363 362 361 361 359 356 355 354 354 353 351 350 350 353 354 350 347 348 343 345 353 357 357 357 358 358
357 360 361 364 363 362 362 362 361 360 360 360 361 361 362 362 362 362 361 361 360 359 356 354 353 353 353 350 349 352 354 353 348 345 344 344 352 356 358 358 358 359 360
359 358 359 362 363 363 361 360 360 359 359 360 360 361 361 361 361 361 360 360 359 357 355 353 352 352 351 350 352 354 355 355 349 344 340 345 356 359 360 360 360 360 360
358 355 354 358 360 359 359 361 359 359 359 360 361 361 360 360 360 359 358 358 355 355 354 353 351 351 351 352 353 354 355 355 346 338 348 352 357 358 358 359 358 359 359
356 353 351 352 356 357 357 359 360 361 360 360 360 360 356 352 353 353 353 356 355 354 353 352 351 351 352 353 354 354 356 343 339 343 348 356 356 357 356 355 355 354 353
351 349 349 348 349 352 354 357 357 356 355 353 352 355 350 351 349 348 353 356 356 354 354 353 353 354 354 345 345 352 347 343 344 348 350 356 356 354 352 350 348 347 347
352 350 347 347 347 345 349 352 351 352 350 348 350 351 351 349 350 350 351 349 350 354 349 351 350 348 340 340 344 345 345 346 349 349 352 354 352 349 347 344 343 342 341
349 349 347 347 347 346 348 346 346 344 344 345 350 350 350 355 351 350 348 343 347 346 345 344 342 344 348 348 346 348 349 350 349 348 348 350 349 346 343 340 339 337 337
349 349 347 347 346 349 342 344 343 342 342 345 351 349 352 355 352 350 351 343 344 344 343 346 345 351 350 351 349 350 351 353 352 348 345 346 345 344 339 336 335 334 333
353 349 349 347 350 349 344 347 344 344 343 345 349 347 353 355 354 352 353 349 351 348 347 346 349 353 348 350 352 352 349 350 350 349 347 341 343 341 337 333 333 331 331
352 352 347 348 354 351 350 353 350 348 346 346 349 350 356 355 356 354 351 346 347 347 351 352 353 352 352 353 349 346 347 348 348 348 345 342 336 339 336 333 331 332 329
354 349 352 349 351 355 355 352 351 354 352 354 353 353 354 354 356 356 351 349 349 350 352 350 351 346 347 348 343 343 345 348 347 348 343 339 336 332 334 338 336 336 328
357 349 349 351 351 355 357 357 359 358 355 355 355 353 356 353 354 354 351 350 351 352 354 356 352 351 347 341 339 341 343 345 347 343 342 338 334 331 329 333 336 331 326
359 352 350 352 353 356 356 356 357 354 358 356 354 355 357 355 354 353 350 359 356 353 354 353 350 346 342 339 338 337 341 345 346 343 341 337 333 327 325 329 326 326 334
356 354 352 350 354 354 355 350 353 350 355 353 358 356 357 357 353 352 356 356 355 352 352 351 349 344 337 338 337 336 337 340 342 342 341 331 327 324 326 324 326 325 327
357 355 353 353 353 353 356 354 354 349 353 352 355 357 357 357 356 353 357 351 348 346 344 341 343 338 336 334 329 330 325 329 324 330 331 326 324 325 324 325 328 326 327
355 355 352 351 354 354 355 355 356 351 353 349 352 352 354 354 353 356 353 348 347 344 336 336 336 334 330 331 325 325 318 316 316 323 321 320 324 324 324 325 326 327 326
353 356 354 355 355 355 356 355 352 345 343 348 347 352 353 355 352 348 347 343 341 339 338 336 335 333 330 327 329 327 325 322 314 311 319 319 321 321 325 324 325 325 324
355 354 355 355 355 356 355 353 350 347 351 349 351 351 349 344 344 343 343 341 336 335 334 332 328 331 329 327 322 322 322 321 324 317 309 313 319 320 323 325 324 326 325
354 354 355 353 351 353 353 353 352 348 346 347 346 340 339 339 340 338 339 339 339 336 335 331 330 330 328 327 325 323 319 315 313 312 311 313 313 316 320 325 325 322 322
Wind_Speed
16 17 17 18 16 17 17 18 18 16 16 16 16 14 13 13 14 14 14 13 12 12 12 10 10 9 9 10 11 10 11 11 10 9 7 5 4 4 3 4 6 8 6
23 18 18 19 17 17 17 17 17 17 15 16 16 14 13 12 14 14 13 12 12 12 12 11 10 10 9 9 9 8 8 8 6 3 1 4 6 7 7 3 3 6 4
21 18 19 19 19 18 17 17 17 17 16 16 16 14 14 12 14 13 12 11 12 12 11 10 10 10 9 8 7 7 6 3 2 6 7 7 7 7 4 2 1 5 5
20 16 16 20 19 18 18 17 17 17 16 16 15 13 13 13 12 12 11 11 11 11 10 10 9 9 8 7 6 4 2 2 5 9 7 9 2 10 3 1 3 6 7
18 15 16 21 19 19 18 18 18 18 17 16 15 14 13 13 12 11 11 11 11 11 10 9 9 8 7 6 5 3 2 5 9 12 10 11 6 9 6 3 6 8 8
20 15 17 20 21 18 18 19 18 18 17 16 15 14 13 12 12 11 11 10 10 10 10 9 8 7 6 4 3 2 3 6 10 11 11 1 10 9 6 6 8 8 9
19 17 16 19 21 20 18 19 18 18 17 16 15 14 13 13 11 11 10 10 9 9 9 8 7 5 4 3 2 2 3 7 8 10 11 8 8 8 8 10 8 9 10
18 17 15 18 20 20 19 19 18 18 16 16 15 14 13 13 12 11 10 10 8 8 7 7 6 5 3 3 1 2 4 8 9 9 10 6 9 11 11 9 10 11 11
21 17 14 14 15 19 18 18 18 17 16 15 15 14 14 13 12 10 10 8 8 7 7 6 5 4 3 3 3 5 9 11 7 8 7 5 11 11 11 12 10 11 12
20 17 15 13 15 14 14 16 17 16 15 15 15 15 14 14 11 10 10 8 7 6 7 6 5 5 5 6 9 12 13 11 9 11 4 5 11 13 15 13 13 13 14
19 17 15 14 14 12 14 14 16 17 15 14 13 15 12 8 8 10 8 12 9 8 7 6 6 7 8 11 12 14 10 6 10 3 4 12 13 16 17 15 14 14 14
20 19 16 15 13 15 11 13 12 12 10 9 10 10 7 8 8 11 11 11 9 8 7 8 8 10 9 6 6 14 5 10 1 6 6 12 14 16 16 15 14 14 15
20 16 18 15 14 15 13 9 7 7 7 7 10 9 8 6 6 7 5 5 5 8 5 7 7 6 9 7 3 5 8 5 6 6 8 11 15 16 15 13 13 14 15
24 23 22 18 14 13 11 9 8 8 7 6 7 10 6 3 6 5 6 7 6 6 7 8 6 6 7 2 5 3 3 4 4 5 7 13 13 15 12 12 14 16 16
24 27 27 24 19 16 16 11 10 8 8 7 7 8 5 4 4 4 5 6 7 8 6 7 3 4 4 6 4 3 6 6 7 4 4 11 12 13 12 11 15 14 15
5 25 28 26 19 18 15 15 10 9 9 9 7 7 6 3 4 3 1 2 2 2 4 5 4 3 3 2 7 7 5 6 6 7 4 5 10 11 10 11 13 12 11
18 13 23 24 16 18 15 13 12 11 10 9 8 9 6 5 5 3 3 3 4 2 3 3 2 2 3 4 6 5 5 5 4 4 3 4 5 8 6 8 8 9 6
18 25 12 17 15 13 13 8 10 10 8 7 7 7 6 6 6 3 3 5 4 3 3 3 0 5 5 1 4 4 2 3 6 4 5 3 3 3 3 6 5 11 6
18 18 16 11 17 13 11 8 7 10 8 8 9 9 8 7 8 4 4 4 2 2 1 3 5 4 3 5 4 2 2 4 5 3 5 3 7 2 3 6 11 9 3
16 25 31 23 18 18 10 8 5 8 5 6 8 10 11 7 7 4 4 4 4 6 3 4 5 6 5 5 4 4 4 5 2 2 2 5 5 5 4 5 4 5 8
16 19 24 22 20 13 11 9 8 8 6 6 5 14 10 6 7 5 1 7 5 5 5 4 5 5 6 6 4 3 6 3 3 2 4 5 5 4 6 5 2 2 2
17 18 14 19 18 11 10 10 11 9 7 6 9 10 7 6 8 5 5 6 6 6 8 7 7 5 5 4 3 3 2 2 5 3 4 3 4 3 4 4 5 5 4
18 17 16 16 17 13 14 10 7 10 6 6 8 7 6 7 6 8 8 7 5 5 6 6 5 4 2 2 4 1 3 3 3 3 7 6 7 2 2 1 5 4 4
20 18 19 19 19 16 17 10 7 8 10 10 8 6 5 8 10 12 10 9 6 5 5 5 4 3 2 2 2 3 2 2 3 4 5 5 6 4 1 0 2 1 1
23 21 19 20 20 19 17 13 10 11 7 9 10 11 10 10 10 10 9 8 8 6 5 5 3 3 4 3 3 3 3 3 0 1 4 5 4 4 4 2 2 3 2
23 21 18 20 20 20 16 14 13 18 14 11 11 9 7 6 6 10 8 7 8 7 5 5 6 6 6 5 4 4 3 2 3 3 3 4 6 5 5 2 1 2 2
Wind_Direction
125 133 128 129 133 134 134 133 131 130 128 127 122 121 115 110 104 104 106 111 114 116 115 109 104 96 80 69 61 57 58 54 50 50 55 67 94 111 74 8 339 47 54
134 142 129 131 134 135 137 135 133 131 133 129 124 126 122 121 114 114 116 116 116 115 112 108 104 93 86 81 74 65 59 57 40 11 259 209 215 186 160 174 321 350 9
136 139 136 134 137 138 139 136 135 134 137 130 129 133 132 126 118 118 118 118 116 115 113 106 98 96 94 85 78 71 65 46 342 289 276 266 199 201 188 165 310 317 314
132 140 140 133 140 141 141 139 137 136 138 133 135 136 136 127 123 118 114 114 114 115 112 104 101 101 97 93 85 77 57 1 299 292 289 267 121 170 140 12 336 292 288
131 149 136 135 140 143 143 142 142 139 140 137 139 139 139 129 122 117 115 114 114 114 113 110 107 105 107 104 105 102 33 335 313 307 277 271 104 110 91 55 353 331 317
141 141 137 138 140 142 144 143 141 138 140 141 142 140 138 127 119 116 114 115 117 118 116 113 114 119 115 114 110 64 9 322 318 283 276 240 71 100 89 56 10 338 321
146 125 138 141 138 144 146 143 142 140 143 144 143 141 137 126 120 115 115 117 119 118 121 124 124 122 124 110 74 39 346 315 294 288 291 95 92 96 64 38 2 338 329
141 134 139 143 142 143 143 143 142 140 145 142 142 140 132 127 123 123 122 124 126 128 130 133 129 133 136 113 81 310 293 281 298 298 301 83 84 64 50 29 358 340 332
126 135 141 146 145 137 140 144 143 144 144 143 143 139 134 127 128 128 125 128 132 138 144 148 146 151 154 157 220 249 256 261 273 274 312 84 76 69 54 35 12 0 353
133 139 147 150 151 144 142 141 140 141 141 144 141 137 133 130 133 132 130 138 147 158 155 159 164 175 191 219 231 235 242 259 255 256 84 95 79 58 46 32 15 13 15
139 143 153 157 153 154 143 147 137 138 141 141 142 140 139 156 167 158 171 146 160 170 169 172 182 200 215 235 246 249 257 257 252 84 89 93 71 61 54 39 25 23 21
145 150 156 160 158 153 149 149 150 150 158 168 167 162 178 168 179 175 141 152 167 174 182 190 203 216 228 243 227 242 241 249 256 100 102 84 85 76 65 50 38 31 29
152 154 161 160 167 160 138 172 155 156 163 173 167 170 219 167 141 137 145 163 174 194 195 199 214 225 228 234 177 194 211 277 120 86 108 106 89 81 74 64 44 32 31
155 161 158 159 169 154 145 165 155 157 162 152 164 186 211 201 172 177 161 178 188 173 216 194 209 211 222 239 269 8 324 15 3 109 114 93 90 81 72 69 56 32 25
167 163 163 161 175 153 154 156 162 163 162 154 158 188 216 140 172 197 196 180 193 173 202 194 227 175 203 236 219 82 41 10 353 109 111 105 101 91 72 49 50 35 24
218 166 157 159 171 147 158 152 154 152 166 155 157 184 215 178 178 199 52 341 287 238 174 209 203 143 248 36 58 58 7 21 359 35 76 102 106 99 85 61 44 35 25
163 301 146 150 161 150 157 154 154 155 166 162 163 170 191 182 170 148 165 223 264 256 294 44 13 209 355 80 56 62 40 358 351 15 61 120 130 105 116 80 45 24 36
168 161 293 142 151 152 146 152 149 147 154 158 151 149 195 180 156 179 208 194 245 222 146 252 352 64 78 89 84 41 3 301 289 211 108 76 77 46 164 47 44 22 74
149 127 106 183 153 154 146 149 150 145 164 172 151 153 179 173 155 182 240 180 207 223 28 79 64 86 127 48 40 204 240 250 271 97 115 118 81 78 34 344 28 93 120
152 134 160 166 159 156 154 150 149 156 185 170 153 152 163 176 154 202 246 97 87 56 69 83 83 56 56 41 336 326 281 242 123 52 113 62 64 52 13 41 32 19 345
153 160 158 169 150 153 153 162 152 164 193 153 124 130 152 167 146 180 0 91 85 87 68 74 81 58 55 13 295 293 263 247 99 332 68 61 60 23 55 12 36 27 321
157 161 160 141 164 149 155 170 169 169 174 147 126 136 149 143 132 142 103 100 97 102 71 50 36 72 55 20 331 275 338 340 34 19 79 37 50 44 51 355 27 9 22
159 164 164 159 160 162 166 183 165 153 152 118 128 124 136 125 131 119 105 102 79 84 79 72 60 58 61 43 75 245 327 14 320 17 36 7 352 358 105 20 87 26 9
163 168 166 172 164 172 172 179 167 158 156 134 137 118 103 100 76 84 87 91 114 107 108 74 77 113 172 349 184 133 41 68 11 337 5 343 326 23 309 322 101 177 45
163 172 175 171 166 173 176 177 162 151 111 130 112 109 87 81 93 95 88 101 97 93 88 117 152 187 81 39 19 359 30 341 193 293 315 339 327 317 296 142 285 21 353
167 171 167 167 174 173 173 175 162 130 125 126 117 104 104 103 98 99 116 121 110 126 128 84 65 57 62 44 13 36 30 21 21 331 324 323 353 309 298 132 40 118 29